Satellite-Ground Cal/Val Site Overpasses Predictions

Prediction of Satellite NPP Overpassing Cal/Val Site: Antarctic Dome C

Ground Cal/Val Site Location: Latitude: -75.10, Longitude: 123.35; Satellite-Ground Site NADIR distance within 100 km.

Table of predicted overpasses for the next 14.0 days since TLE Epoch: 1/6/2024
Interval Starting Time Ending Time Minimum Distance Time Minimum Distance (km)
1 01/06/2024 15:01:46 01/06/2024 15:02:09 01/06/2024 15:01:57 58.72
2 01/07/2024 14:42:56 01/07/2024 14:43:21 01/07/2024 14:43:09 50.40
3 01/08/2024 07:44:37 01/08/2024 07:44:57 01/08/2024 07:44:47 72.13
4 01/09/2024 07:25:45 01/09/2024 07:26:13 01/09/2024 07:25:59 35.69
5 01/11/2024 15:08:14 01/11/2024 15:08:21 01/11/2024 15:08:17 96.85
6 01/12/2024 14:49:13 01/12/2024 14:49:42 01/12/2024 14:49:27 14.70
7 01/14/2024 07:32:04 01/14/2024 07:32:33 01/14/2024 07:32:19 1.90
8 01/17/2024 14:55:32 01/17/2024 14:56:01 01/17/2024 14:55:47 22.38
9 01/18/2024 14:36:51 01/18/2024 14:37:06 01/18/2024 14:36:58 84.74
